THORAD DELTA 1 DEB, 8561

Orbit data source: Space-Track

THORAD DELTA 1 DEB, 8561 is space debris in SSO originally from a launch on Fri, 15 Nov 1974 UTC launched from the Air Force Western Test Range (AFWTR). Debris objects in space refer to the collection of defunct objects orbiting the Earth. Examples of debris include non-operational satellites, rocket bodies, and fragments generated from explosions, collisions, or faulty payload assembly.

Loading next visibility...
Identifier
8561, 1974-089CY
Orbit
SSO
Country
Flag of USUS
Related business
Manufacturer
Unknown
Mission
Spacecraft
Bus & Motor
Unknown
Mass
Unknown
Launch date (UTC)
1974-11-15 (51 years ago)
Launch vehicle
Unknown
Launch site
Air Force Western Test Range (AFWTR)
Object type
Payload
Rocket body
Debris
Shape & HBR
Unknown shape, 0.1 m
Radar Cross Section
Small (<0.1 m²)

Expand to show TLE details & history
Last TLE update: 23 hours ago

TLE from 23 hours ago
0 THORAD DELTA 1 DEB
1 08561U 74089CY  25300.03368894  .00000565  00000-0  31541-2 0  9991
2 08561 101.5228 338.8765 0067770 272.8784 117.7415 12.67481955345776
Epoch: 2025-10-27T00:48Z
TLE epoch observation values (Epoch: 2025-10-27T00:48:30.724Z)
Latitude
30.65646°
Longitude
-75.79891°
Altitude
1,420.616 km
Speed
7.142 km/s
True Right ascension
22h 07m 52s
True Declination
30° 31' 07"
Sunlit
Object was in daylight at epoch
Visualization orbit readout
Latitude
Unknown
Longitude
Unknown
Altitude
Unknown
Speed
Unknown
Apparent Right ascension
Unknown
Apparent Declination
Unknown
Sunlit
N/A
Visualization observer readout
Local Sidereal Time
19:04:53
Azimuth
Unknown
Elevation
Unknown
Doppler factor
Unknown
Orbital elements
Apogee altitude
1,442.368 km
Perigee altitude
1,337.082 km
Semi-major axis
7,767.862 km
Eccentricity
0.00678
Inclination
101.5228°
RAAN
338.8765°
Arg. of periapsis
272.8784°
True anomaly
118.42611°
Mean anomaly
117.7415°
Eccentric anomaly
118.08407°
Mean motion
3.17023 °/min
Orbital period
113.56 mins
BSTAR
0.0031541
Loading maneuver chart data...
Computing Atmospheric mass density...

Documentation

Showing up to 5 results
|